Zurück zum Katalog

STARLINK-34266

AktivKommunikationVLEO
NORAD 65093·PAYLOAD·🇺🇸 United States

Gestartet Aug 4, 2025 von Cape Canaveral Space Force Station

Loading…

Nächste Überflüge (nächste 24 Stunden)

TLE

AktuellSource: CelesTrak SupGP

Epoche: Sep 14, 2026, 22:53 UTC

1 65093C 25167R   26257.95395833  .00006168  00000+0  18229-3 0  2573
2 65093  53.1571 219.7656 0001518  90.6986  12.6379 15.34379990    15

Verfolge STARLINK-34266 in Echtzeit mit AllMySat

Download on the App Store